, AK

(GMT )
Northway

Weather History for PAOR - September, 2013

Change the Weather History Date:

Thursday, September 19, 2013

  Actual Average Record
Temperature  
Mean Temperature 34 °F -  
Max Temperature 37 °F 50 °F 63 °F (1982)
Min Temperature 30 °F 29 °F 14 °F (2003)
Degree Days  
Heating Degree Days 32    
Moisture  
Dew Point 29 °F    
Average Humidity 86    
Maximum Humidity 93    
Minimum Humidity 75    
Precipitation  
Precipitation 0.02 in - - ()
Sea Level Pressure  
Sea Level Pressure 29.55 in    
Wind  
Wind Speed 6 mph (NW)    
Max Wind Speed 12 mph    
Max Gust Speed 25 mph    
Visibility 7 miles    
Events Rain , Snow    
Averages and records for this station are not official NWS values.
T = Trace of Precipitation, MM = Missing Value Source: NWS Daily Summary

Daily Weather History Graph

Daily Weather History Graph

Search for Another Location

Airport or City:

Trip Planner

Search our weather history database for the weather conditions in past years. The results will help you decide how hot, cold, wet, or windy it might be!

Date:

Astronomy

Sep. 19, 2013 Rise Set
Actual Time 7:04 AM AKDT 7:36 PM AKDT
Civil Twilight 6:17 AM AKDT 8:22 PM AKDT
Nautical Twilight 5:21 AM AKDT 9:19 PM AKDT
Astronomical Twilight 4:15 AM AKDT 10:23 PM AKDT
Moon 7:11 PM AKDT (9/19) 7:43 AM AKDT (9/19)
Length of Visible Light 14h 04m
Length of Day
12h 32m
Full, 100% of the Moon is Illuminated
Sep 19
Full
Sep 26
Last Quarter
Oct 4
New
Oct 11
First Quarter
Oct 18
Full

Hourly Weather History & Observations

Time (AKDT) Temp. Windchill Dew Point Humidity Pressure Visibility Wind Dir Wind Speed Gust Speed Precip Events Conditions
12:53 AM 33.1 °F 26.9 °F 28.9 °F 85% 29.67 in 10.0 mi NW 6.9 mph - N/A   Overcast
1:53 AM 32.0 °F 26.4 °F 30.0 °F 92% 29.67 in 10.0 mi NW 5.8 mph - 0.00 in Rain Light Rain
2:53 AM 32.0 °F 27.5 °F 30.0 °F 92% 29.66 in 10.0 mi NW 4.6 mph - 0.00 in Rain Light Rain
3:53 AM 32.0 °F 28.7 °F 30.0 °F 92% 29.65 in 10.0 mi Variable 3.5 mph - 0.00 in Rain Light Rain
4:53 AM 32.0 °F 28.7 °F 28.9 °F 88% 29.64 in 10.0 mi NW 3.5 mph - 0.00 in Rain Light Rain
5:53 AM 32.0 °F 28.7 °F 28.9 °F 88% 29.64 in 10.0 mi NW 3.5 mph - 0.00 in Rain Light Rain
6:10 AM 32.0 °F 28.7 °F 28.4 °F 87% 29.56 in 10.0 mi NW 3.5 mph - 0.00 in   Overcast
6:53 AM 30.9 °F 26.2 °F 28.9 °F 92% 29.63 in 10.0 mi NW 4.6 mph - 0.00 in   Overcast
7:08 AM 30.2 °F 25.4 °F 28.4 °F 93% 29.55 in 10.0 mi Variable 4.6 mph - N/A   Overcast
7:53 AM 30.9 °F 25.2 °F 28.0 °F 89% 29.62 in 10.0 mi NW 5.8 mph - N/A   Overcast
8:53 AM 32.0 °F 28.7 °F 28.0 °F 85% 29.61 in 10.0 mi NW 3.5 mph - N/A   Overcast
9:08 AM 32.0 °F 27.5 °F 28.4 °F 87% 29.53 in 7.0 mi NW 4.6 mph - N/A   Overcast
9:53 AM 33.1 °F 25.5 °F 28.0 °F 82% 29.60 in 10.0 mi NW 9.2 mph - N/A   Overcast
10:53 AM 33.1 °F 26.9 °F 28.9 °F 85% 29.59 in 10.0 mi NW 6.9 mph - N/A   Overcast
11:53 AM 34.0 °F 28.0 °F 28.9 °F 82% 29.59 in 10.0 mi WNW 6.9 mph - N/A   Overcast
12:46 PM 35.6 °F 31.7 °F 28.4 °F 75% 29.51 in 10.0 mi NNW 4.6 mph - N/A   Overcast
12:53 PM 35.1 °F 31.0 °F 28.9 °F 78% 29.58 in 7.0 mi Variable 4.6 mph - N/A   Overcast
1:53 PM 36.0 °F 29.0 °F 30.0 °F 79% 29.57 in 8.0 mi NNW 9.2 mph - 0.00 in Snow Light Snow
2:51 PM 37.4 °F 32.1 °F 30.2 °F 75% 29.49 in 8.0 mi Variable 6.9 mph - 0.00 in Snow Light Snow
2:53 PM 37.0 °F 31.0 °F 30.0 °F 76% 29.56 in 8.0 mi NW 8.1 mph - 0.00 in Snow Light Snow
3:53 PM 35.1 °F 27.4 °F 30.9 °F 85% 29.56 in 3.0 mi NW 10.4 mph - 0.00 in Snow Light Snow
4:04 PM 33.8 °F 27.0 °F 30.2 °F 87% 29.48 in 1.8 mi NW 8.1 mph - 0.00 in Snow Light Snow
4:21 PM 33.8 °F 27.0 °F 30.2 °F 87% 29.48 in 2.5 mi NNW 8.1 mph - 0.01 in Snow Light Snow
4:36 PM 33.8 °F 27.0 °F 30.2 °F 87% 29.48 in 3.0 mi NW 8.1 mph - 0.01 in Snow Light Snow
4:53 PM 34.0 °F 28.0 °F 30.9 °F 89% 29.55 in 6.0 mi NW 6.9 mph - 0.01 in Snow Light Snow
5:49 PM 33.8 °F 26.4 °F 30.2 °F 87% 29.47 in 8.0 mi NW 9.2 mph - 0.00 in Snow Light Snow
5:53 PM 34.0 °F 26.6 °F 30.0 °F 85% 29.54 in 8.0 mi NW 9.2 mph - 0.00 in Snow Light Snow
6:53 PM 34.0 °F 26.0 °F 28.0 °F 79% 29.54 in 10.0 mi NW 10.4 mph 20.7 mph 0.00 in   Overcast
7:42 PM 32.0 °F 25.6 °F 28.4 °F 87% 29.46 in 2.5 mi NNW 6.9 mph - 0.00 in Snow Light Snow
7:53 PM 32.0 °F 23.0 °F 28.9 °F 88% 29.54 in 1.5 mi NW 11.5 mph 18.4 mph 0.00 in Snow Light Snow
8:08 PM 32.0 °F 24.2 °F 28.4 °F 87% 29.46 in 3.0 mi NW 9.2 mph 18.4 mph 0.00 in Snow Light Snow
8:25 PM 32.0 °F 25.6 °F 28.4 °F 87% 29.46 in 2.5 mi Variable 6.9 mph 16.1 mph 0.01 in Snow Light Snow
8:38 PM 32.0 °F 23.6 °F 28.4 °F 87% 29.45 in 4.0 mi NW 10.4 mph 18.4 mph 0.01 in Snow Light Snow
8:53 PM 30.9 °F 23.5 °F 28.9 °F 92% 29.53 in 4.0 mi NW 8.1 mph 16.1 mph 0.01 in Snow Light Snow
9:53 PM 30.9 °F 23.5 °F 28.0 °F 89% 29.51 in 3.0 mi NW 8.1 mph 19.6 mph 0.00 in Snow Light Snow
10:28 PM 30.2 °F 21.9 °F 26.6 °F 86% 29.42 in 8.0 mi NW 9.2 mph 19.6 mph 0.00 in Snow Light Snow
10:53 PM 30.9 °F 21.7 °F 27.0 °F 85% 29.49 in 8.0 mi NW 11.5 mph 24.2 mph 0.00 in Snow Light Snow
11:53 PM 30.9 °F 21.7 °F 27.0 °F 85% 29.47 in 7.0 mi NW 11.5 mph 25.3 mph 0.00 in Snow Light Snow